Weather in Szczytno

Poland     53°33′51″N   20°59′17″E
temp.,
°C
wind,
m/s
gust,
m/s
humid.,
%
clouds,
%
prec.,
mm/h
press.,
hPa
HPBL,
m
22 april, thu
thu2223:00+8nw228196 0.2 100970
02:00+6wnw4888100 0.4 1010442
05:00+4wsw3793100 0.7 1010476
08:00+5w5979100 0.8 1011868
11:00+7wsw796392 0.3 10111492
14:00+8wsw8115396 0.6 10112051
17:00+8wnw71257100 0.9 10111991
20:00+4w5106959 1.0 1013769
23 april, fri
fri2323:00+2w4118543 0.1 1013805
02:00+2w5118147 0.1 1014830
05:00+2wnw51282100 0.0 1015879
08:00+4w611655 0.0 1016908
11:00+7nw71144100 0.1 10162536
14:00+6wnw6950100 0.4 10181771
17:00+6nw7125040 0.4 10182084
20:00+3nw510560 0.4 1020589
24 april, sat
sat2423:000wnw38715 0.0 1020235
02:00−1wnw37815 0.0 1021145
05:00−2w37775 0.0 1021134
08:00+5w59515 0.0 1020692
11:00+8nw6931100 0.0 10203123
14:00+8nw6837100 0.0 10192592
17:00+7nw695171 0.4 10191782
20:00+1nw37590 0.5 1021206
25 april, sun
sun2523:00−2wnw22793 0.0 102134
02:00−2w357976 0.0 1021110
05:00−2w377287 0.0 1020155
08:00+3w355199 0.0 1019475
11:00+8wnw5734100 0.3 10182979
14:00+6nw6753100 0.6 10181686
17:00+6nw6104492 0.4 10182136
20:00+1nw496510 0.4 1019316
26 april, mon
mon2623:00−1wnw2481100 0.0 101992
02:00−2wsw368252 0.0 1018121
05:00−2wsw39759 0.0 1017197
08:00+3w4759100 0.0 1016453
11:00+8wnw5834100 0.0 10152593
14:00+9wnw6939100 0.0 10142365
17:00+8nw595191 0.1 10141786
20:00+2nw38745 0.1 1015187